Regional Weather Roundup
Issued by NWS

Home | Current Version | Previous Version | Graphics & Text | Print | Product List | Glossary On
Versions: 1 2 3 4 5 6 7 8 9 10 11 12 13 14 15 16 17 18 19 20 21 22 23 24 25 26 27 28 29 30 31 32 33 34 35 36 37 38 39 40 41 42 43 44 45 46 47 48 49 50
000
ASUS43 KFSD 241710
RWRSD

WEATHER ROUNDUP FOR SOUTH DAKOTA
NATIONAL WEATHER SERVICE SIOUX FALLS SD
1200 PM CDT THU APR 24 2014

NOTE: "FAIR" INDICATES FEW OR NO CLOUDS BELOW 12,000 FEET WITH NO
SIGNIFICANT WEATHER AND/OR OBSTRUCTIONS TO VISIBILITY.


SDZ001>005-009-010-012>017-241800-
NORTHWEST AND NORTH CENTRAL SOUTH DAKOTA

CITY           SKY/WX    TMP DP  RH WIND       PRES   REMARKS
BUFFALO          N/A     53  25  33 W20G31    29.76F
FAITH            N/A     56  30  37 W35G44    29.82S
MOBRIDGE       PTSUNNY   60  25  26 NW20G26   29.74S
$$

SDZ012>016-024>037-041>051-057-063-072>074-241800-
SOUTHWEST AND SOUTH CENTRAL SOUTH DAKOTA

CITY           SKY/WX    TMP DP  RH WIND       PRES   REMARKS
RAPID CTY ARPT SUNNY     56  24  29 N8G21     29.85S
PIERRE         SUNNY     61  27  27 NW22G29   29.79S
CUSTER         SUNNY     50  14  23 W20G36    29.87S
ELLSWORTH AFB  SUNNY     55  27  33 N16G22    29.86R
PHILIP         SUNNY     62  26  25 NW17      29.84S
PINE RIDGE     SUNNY     58  23  26 W13G22    29.88F
SPEARFISH      FAIR      50  27  40 NW18      29.88F
WINNER         FAIR      65  21  18 NW22G35   29.80F
$$

SDZ004>011-016>023-039-040-241800-
NORTHEAST SOUTH DAKOTA

CITY           SKY/WX    TMP DP  RH WIND       PRES   REMARKS
ABERDEEN       MOSUNNY   56  38  50 NW13      29.73S
WATERTOWN      CLOUDY    46  43  89 N5        29.71F
SISSETON         N/A     43  42  97 CALM      29.71F
$$

SDZ017-020-022-023-036>040-048>070-241800-
SOUTHEAST SOUTH DAKOTA

CITY           SKY/WX    TMP DP  RH WIND       PRES   REMARKS
SIOUX FALLS    PTSUNNY   53  46  77 N13       29.73R
HURON          SUNNY     63  35  35 NW13G21   29.73F
CHAMBERLAIN      N/A     64  26  23 NW20G31   29.78S
MITCHELL       SUNNY     63  34  33 N18G26    29.74F
YANKTON        PTSUNNY   55  45  67 NW15G21   29.75F
$$

ABBREVIATIONS USED IN REMARKS
   TC - TEMPERATURE IN CELSIUS
  WCI - WIND CHILL INDEX
   HX - HEAT INDEX
  VSB - VISIBILITY




USA.gov is the U.S. government's official web portal to all federal, state and local government web resources and services.